Hourly Data Report for December 19, 2018

TORONTO CITY
ONTARIO
Current Station Operator: ECCC - MSC

43°40'00.000" N
79°24'00.000" W
112.50 m
6158355
71508
XTO

Download Data

Hourly Data (December 2018)
Hourly Data Report for December 19, 2018
TIME
LST
Temp Definition
°C
Dew Point Definition
°C
Rel Hum Definition
%
Precip. Amount Definition
mm

Wind Dir Definition
10's deg

Wind Spd Definition
km/h
Visibility Definition
km
Stn Press Definition
kPa
Hmdx Definition


Wind Chill Definition


Weather Definition


00:00 -0.6 -5.3 70 0.0 LegendMM LegendMM   100.53     LegendNANA
01:00 -0.7 -5.3 71 0.0 LegendMM LegendMM   100.46     LegendNANA
02:00 -0.6 -4.6 74 0.0 LegendMM LegendMM   100.40     LegendNANA
03:00 -0.7 -4.3 77 0.0 LegendMM LegendMM   100.38     LegendNANA
04:00 -0.4 -3.7 79 0.0 LegendMM LegendMM   100.35     LegendNANA
05:00 0.1 -3.1 79 0.0 LegendMM LegendMM   100.30     LegendNANA
06:00 0.1 -2.8 81 0.0 LegendMM LegendMM   100.28     LegendNANA
07:00 0.2 -2.5 82 0.0 LegendMM LegendMM   100.25     LegendNANA
08:00 0.3 -2.5 81 0.0 LegendMM LegendMM   100.25     LegendNANA
09:00 1.0 -2.1 80 0.0 LegendMM LegendMM   100.29     LegendNANA
10:00 2.2 -1.8 75 0.0 LegendMM LegendMM   100.29     LegendNANA
11:00 2.8 -1.2 75 0.0 LegendMM LegendMM   100.23     LegendNANA
12:00 3.8 -0.8 72 0.0 LegendMM LegendMM   100.11     LegendNANA
13:00 4.7 -1.2 66 0.0 LegendMM LegendMM   100.01     LegendNANA
14:00 4.7 0.1 72 0.0 LegendMM LegendMM   99.96     LegendNANA
15:00 4.8 0.5 73 0.0 LegendMM LegendMM   99.95     LegendNANA
16:00 4.7 0.6 75 0.0 LegendMM LegendMM   99.98     LegendNANA
17:00 4.4 -0.1 73 0.0 LegendMM LegendMM   100.01     LegendNANA
18:00 3.9 -0.3 74 0.0 LegendMM LegendMM   100.00     LegendNANA
19:00 3.6 -0.6 74 0.0 LegendMM LegendMM   100.04     LegendNANA
20:00 3.4 -0.5 75 0.0 LegendMM LegendMM   100.03     LegendNANA
21:00 3.4 -1.0 73 0.0 LegendMM LegendMM   100.04     LegendNANA
22:00 2.8 -1.2 75 0.0 LegendMM LegendMM   100.01     LegendNANA
23:00 2.6 -0.9 78 0.0 LegendMM LegendMM   99.99     LegendNANA

Notes on Data Quality.

Legend

  • E = Estimated
  • M = Missing
  • NA = Not Available*
  • [empty] = Indicates an unobserved value
Date modified: